星链-3735 (STARLINK-3735 )

导读

STARLINK-3735是美国太空探索技术公司(SpaceX)星链计划中的一颗卫星,于北京时间2022年3月19日8时发射升空,属于星链星座组网卫星,旨在为全球提供高速低延迟互联网服务,目前(2026年)已在轨运行近四年,是星链卫星互联网星座的组成部分。

基本信息
目录编号:
52116
目录名称:
STARLINK-3735
国际标识:
2022-029AE
轨道中心:
EARTH
卫星名称:
星链-3735
卫星全名:
星链-3735 (STARLINK-3735 )
卫星状态:
在轨 (已飞行1638 天)
发射日期:
2022-03-19 UTC
国别 :
美国 (US)
星等 :
--
该卫星已列入 空间交会检测服务 Space Conjunction Data Service (SCDS) ,当前飞行风险评估等级: 高风险
轨道信息
数据来源 国际轨道数据 AOE轨道数据
星历时间 2026-09-11T18:51:45+0800
20小时前
查看轨道信息
2026-09-10T08:00:00+0800
2天前
查看轨道信息
半长轴 6840.885km 6840.878km
偏心率 0.0001156 0.0001307
轨道倾角 53.161° 53.160°
近地点辐角 91.908° 70.135°
升交点赤经 311.669° 318.462°
平近点角 268.205° 181.564°
近地点 461.957km 461.846km
远地点 463.539km 463.636km
周期 93.849分钟 93.849分钟
每日圈数 15.34385 15.343875
详细信息
固有亮度:
5
最大亮度:
2.5
卫星平台:
Starlink v1.5
覆盖范围:
全球
运营商:
太空探索技术公司
运营商所在国:
美国
制造商(研发单位):
太空探索技术公司
制造商所在国:
美国
使用方式:
暂无
卫星简介
星链(Starlink)计划是由太空探索技术公司(SpaceX)提出的一个巨型低轨卫星互联网星座项目,计划在2019年至2024年间在太空搭建由约1.2万颗卫星组成的“星链”网络,其中1584颗将部署在地球上空550千米处的近地轨道,并从2020年开始工作。该卫星仍在工作。
2D轨道图
3D轨道图
轨道高度分析图
轨道倾角分析图
轨道综合分析图
查看轨道综合分析图
交会数据列表
事件ID 空间交会对象 最接近时刻(TCA) 交会距离 交会风险概率(CRP) 交会风险指数(CRI) 操作
CDM_260913-163402-077505-211624
SL-8 R/B (20775)
2026-09-13T
16:34:58+0000
0.906 km
远距离
3.547718E-5 中风险 0.66
CDM_260913-021405-211606-410222
2026-09-13T
02:14:00+0000
1.242 km
极远距离
7.679643E-6 低风险 0.53
CDM_260913-091605-211606-410223
2026-09-13T
09:16:03+0000
1.452 km
极远距离
4.551891E-6 低风险 0.48
CDM_260913-004005-211606-410223
2026-09-13T
00:40:12+0000
2.276 km
极远距离
1.362048E-6 低风险 0.38
CDM_260913-104905-211606-410221
2026-09-13T
10:49:51+0000
2.436 km
极远距离
1.196074E-6 低风险 0.37
CDM_260914-115405-211605-249321
2026-09-14T
11:54:39+0000
2.899 km
极远距离
5.54253E-7 极低风险 0.3
与全量物体交会距离演化趋势
与全量物体交会风险概率演化趋势